{"data":{"norad_id":40074,"intl_designator":"2014-037F","name":"UKUBE-1","alt_names":[],"object_type":"PAYLOAD","status":"ACTIVE","operator":null,"country":"UK","launch_date":"2014-07-08","launch_site_code":"TYMSC","launch_vehicle":null,"mission":null,"orbit_class":"UNKNOWN","rcs_meters":0.118,"size_class":null,"mass_kg":null,"dimensions":null,"purposes":["tech_demo"],"wikipedia_slug":null,"has_3d_model":false,"image_url":null,"decayed_at":null,"tle_current":{"epoch":"2026-05-24T23:02:51.946080Z","epoch_age_seconds":88768,"freshness":"FRESH","line1":"1 40074U 14037F   26144.96032345  .00007916  00000+0  45120-3 0  9996","line2":"2 40074  98.4238 145.8004 0000813 154.4681 205.6588 15.13112130645045","mean_motion":15.1311213,"eccentricity":8.13e-5,"inclination_deg":98.4238,"raan_deg":145.8004,"arg_perigee_deg":154.4681,"mean_anomaly_deg":205.6588,"bstar":0.0004512,"rev_number":64504,"period_min":95.168095704844,"perigee_km":526.1545655666,"apogee_km":527.27729465303,"semimajor_km":6904.8529301098,"source":"CELESTRAK","updated_at":"2026-05-25T13:38:25.524401Z"}}}